Date,TemperatureHighF,TemperatureAvgF,TemperatureLowF,DewpointHighF,DewpointAvgF,DewpointLowF,HumidityHigh,HumidityAvg,HumidityLow,PressureMaxIn,PressureMinIn,WindSpeedMaxMPH,WindSpeedAvgMPH,GustSpeedMaxMPH,PrecipitationSumIn
2013-1-1,45.3,43.0,41.2,39.2,36.8,33.4,84,79,73,29.93,29.37,17,6,17,0.01
2013-1-2,49.6,45.9,43.0,48.3,43.6,38.5,95,91,83,30.17,29.92,14,4,14,0.08
2013-1-3,49.8,48.6,47.7,48.0,46.9,46.0,95,94,93,30.48,30.16,17,5,17,0.02
2013-1-4,48.4,47.7,46.8,46.7,45.8,44.8,95,93,91,30.53,30.45,11,3,11,0.04
2013-1-5,51.8,48.6,47.1,46.3,44.6,42.2,92,86,74,30.47,30.35,15,3,15,0.01
2013-1-6,50.4,47.6,45.0,47.7,44.9,43.0,95,90,84,30.43,30.23,12,3,12,0.00
2013-1-7,49.8,47.9,45.5,45.3,43.8,41.7,88,86,83,30.23,30.04,12,4,12,0.02
2013-1-8,51.1,47.7,38.3,48.6,45.0,36.8,95,91,84,30.15,30.01,11,3,11,0.20
2013-1-9,40.5,36.8,32.2,39.1,35.2,29.9,96,94,90,30.15,30.01,4,1,4,0.02
2013-1-10,39.0,35.4,32.5,38.0,33.4,30.2,96,92,91,30.01,29.87,4,1,4,0.00
2013-1-11,39.6,36.2,32.4,38.0,33.9,30.0,96,91,84,30.00,29.86,10,1,10,0.01
2013-1-12,41.2,36.6,29.1,34.7,30.6,24.9,87,79,67,30.03,29.83,17,4,17,0.00
2013-1-13,36.1,32.2,28.0,30.8,28.2,23.2,90,85,75,30.12,29.97,11,2,11,0.07
2013-1-14,39.4,34.7,30.9,37.3,31.6,27.8,93,88,85,29.98,29.64,7,1,7,0.07
2013-1-15,40.5,31.8,27.3,36.7,26.8,20.8,90,82,64,29.82,29.69,4,0,4,0.01
2013-1-16,34.9,31.8,27.3,23.9,22.0,18.3,76,67,57,29.93,29.75,11,1,11,0.00
2013-1-17,36.3,33.7,30.4,27.2,24.0,19.5,77,67,61,29.94,29.73,22,7,22,0.00
2013-1-18,33.8,32.2,30.0,25.0,23.4,20.2,76,70,61,29.73,29.40,25,8,25,0.00
2013-1-19,35.1,33.8,31.8,26.9,25.3,23.2,76,71,65,29.57,29.43,11,3,11,0.00
2013-1-20,35.8,34.6,33.4,26.7,24.9,22.8,73,68,64,29.55,29.32,11,3,11,0.00
2013-1-21,35.2,33.3,31.1,30.3,27.5,24.4,82,79,73,29.37,29.24,8,2,8,0.06
2013-1-22,43.5,34.9,31.1,30.9,27.0,22.8,80,73,59,29.73,29.37,11,2,11,0.00
2013-1-23,36.9,33.7,28.8,27.9,25.8,22.5,81,73,68,29.85,29.72,14,2,14,0.01
2013-1-24,41.2,34.8,27.7,27.7,24.6,18.7,82,67,55,30.04,29.84,12,4,12,0.00
2013-1-25,36.3,33.3,30.9,31.7,25.6,18.2,89,74,57,29.99,29.37,27,11,27,0.57
2013-1-26,44.6,36.8,32.4,40.1,33.2,29.2,93,86,79,29.61,29.12,17,4,17,0.21
2013-1-27,48.0,42.5,38.3,45.3,35.5,33.3,92,76,69,29.35,28.94,21,8,21,0.15
2013-1-28,48.0,43.2,40.1,43.4,37.5,33.3,92,80,70,29.48,29.07,27,10,27,0.21
2013-1-29,52.5,47.4,43.5,48.9,42.6,39.0,92,83,73,29.44,29.15,27,8,27,0.11
2013-1-30,46.6,44.2,41.4,43.2,39.2,36.0,91,83,76,29.79,29.25,23,8,23,0.14
2013-1-31,46.8,44.2,42.1,39.2,37.2,35.3,84,77,70,29.77,29.44,22,8,22,0.07
2013-2-1,44.4,41.4,36.9,38.9,36.0,26.8,88,81,67,29.69,29.35,17,4,17,0.01
2013-2-2,41.7,34.1,27.3,28.6,23.5,19.1,83,67,42,30.16,29.69,10,2,10,0.01
2013-2-3,47.1,42.3,33.6,45.1,38.9,26.9,95,88,69,30.11,29.67,18,6,18,0.07
2013-2-4,46.6,43.1,36.7,44.4,35.9,28.6,92,76,68,29.75,29.44,24,9,24,0.08
2013-2-5,42.6,39.0,34.7,37.9,31.9,24.9,92,76,63,29.46,29.11,25,9,25,0.07
2013-2-6,44.1,40.1,36.9,33.8,27.4,21.6,79,62,47,30.04,29.35,14,5,14,0.01
2013-2-7,40.6,35.7,30.0,34.4,29.7,22.4,84,79,66,30.07,29.92,4,1,4,0.00
2013-2-8,46.2,38.4,30.2,37.8,30.2,25.9,90,74,49,30.12,30.00,11,1,11,0.01
2013-2-9,41.4,38.6,35.4,37.9,34.9,31.1,92,86,81,30.10,29.72,6,1,6,0.08
2013-2-10,39.2,38.4,37.9,35.5,34.6,33.8,87,86,85,29.73,29.55,11,6,11,0.04
2013-2-11,40.5,36.1,33.1,29.4,26.8,22.9,79,69,58,29.81,29.30,9,4,9,0.01
2013-2-12,39.4,35.7,33.1,28.3,25.6,23.2,71,66,61,30.04,29.82,7,2,7,0.00
2013-2-13,39.4,36.4,30.7,37.5,32.7,21.2,94,87,60,30.05,29.62,25,14,25,0.60
2013-2-14,46.4,42.8,39.4,43.6,39.7,36.5,95,89,81,29.87,29.59,17,4,18,0.19
2013-2-15,47.7,43.2,39.7,40.5,38.4,35.8,92,83,73,30.10,29.87,9,3,9,0.00
2013-2-16,50.0,44.2,38.8,38.9,36.5,33.1,89,75,60,30.13,30.08,11,3,11,0.04
2013-2-17,49.5,43.1,39.2,36.0,31.2,27.8,81,64,50,30.09,30.00,18,5,18,0.01
2013-2-18,50.2,40.3,33.1,32.5,28.5,24.7,77,64,41,30.08,30.02,10,3,10,0.00
2013-2-19,46.6,37.6,30.4,36.2,28.8,24.8,84,71,51,30.07,29.99,7,1,7,0.01
2013-2-20,40.3,37.2,32.9,34.6,28.7,21.9,84,72,58,30.25,30.05,14,4,14,0.00
2013-2-21,41.2,35.4,31.8,23.2,21.2,18.3,66,57,46,30.25,30.19,17,5,17,0.00
2013-2-22,36.0,36.0,36.0,21.9,21.9,21.9,57,57,57,30.19,30.19,4,4,6,0.00
2013-2-23,36.0,36.0,36.0,21.9,21.9,21.9,57,57,57,30.19,30.19,4,4,6,0.00
2013-2-24,41.9,36.6,29.7,30.0,24.1,21.9,77,61,57,30.37,30.19,6,3,6,0.05
2013-2-25,46.4,39.4,29.1,33.2,29.8,22.8,79,69,59,30.49,30.34,11,3,11,0.00
2013-2-26,50.2,37.6,32.7,35.1,28.9,25.6,79,71,56,30.61,30.47,9,2,9,0.00
2013-2-27,45.7,35.2,26.6,34.7,26.4,21.0,84,72,51,30.61,30.51,6,1,6,0.00
2013-2-28,48.7,38.1,26.6,35.1,28.5,19.4,82,69,44,30.52,30.39,6,1,6,0.02
2013-3-1,50.9,42.6,31.3,34.1,29.2,23.2,73,60,42,30.45,30.39,8,2,8,0.02
2013-3-2,46.2,37.2,25.7,37.8,30.4,19.2,85,77,62,30.41,30.21,6,1,6,0.00
2013-3-3,50.2,40.8,30.0,40.3,32.2,26.0,90,73,55,30.22,30.04,8,2,8,0.00
2013-3-4,48.9,40.9,34.9,31.5,29.1,26.7,79,64,50,30.05,29.67,12,4,12,0.01
2013-3-5,52.7,41.5,30.7,36.0,31.0,25.0,82,68,51,29.68,29.51,8,2,8,0.01
2013-3-6,52.3,43.8,37.0,39.1,35.7,31.4,86,74,60,29.54,29.47,14,3,14,0.00
2013-3-7,51.3,46.4,41.7,43.2,37.4,35.1,82,71,58,29.48,29.33,8,4,8,0.06
2013-3-8,47.3,46.1,44.1,37.5,36.6,35.6,76,70,68,29.45,29.37,15,7,15,0.00
2013-3-15,49.5,41.8,39.2,41.9,37.8,34.7,92,86,71,29.59,29.30,17,7,17,0.21
2013-3-16,44.8,39.9,37.6,37.3,35.4,34.1,89,84,72,29.29,29.13,6,3,6,0.12
2013-3-17,42.8,36.0,6.4,36.4,31.9,6.4,89,84,78,29.13,29.08,103,7,103,0.14
2013-3-18,41.2,37.4,33.4,36.2,32.2,26.6,90,81,72,29.33,29.15,8,3,8,0.01
2013-3-19,44.8,38.7,31.5,31.9,29.1,25.4,78,69,59,29.40,29.33,6,3,6,0.01
2013-3-20,36.0,35.7,35.4,28.5,26.6,24.8,74,70,65,29.89,29.62,6,6,6,0.00
2013-3-21,35.4,35.4,35.4,24.8,24.8,24.8,65,65,65,29.83,29.81,5,5,5,0.00
2013-3-22,34.5,33.8,33.3,27.8,27.0,26.1,80,76,71,29.75,29.71,15,11,15,0.09
2013-3-23,36.0,35.0,34.5,24.3,23.8,23.6,65,64,62,29.87,29.83,14,9,14,0.01
2013-4-6,54.1,44.5,31.8,29.1,26.1,18.2,72,50,24,29.91,29.85,11,3,11,0.05
2013-4-7,56.7,42.0,26.8,33.0,24.6,17.3,77,54,24,29.85,29.52,11,2,11,0.14
2013-4-8,54.3,42.3,36.0,29.6,26.5,23.1,70,55,32,29.52,29.21,14,5,14,0.00
2013-4-9,54.1,41.7,32.0,30.4,26.3,22.0,68,55,37,29.25,29.14,15,5,15,0.02
2013-4-10,61.3,43.9,27.9,32.9,27.2,19.7,77,54,27,29.28,29.12,13,3,13,0.09
2013-4-11,47.8,42.9,40.8,35.6,31.8,28.6,77,65,53,29.13,28.95,17,6,17,0.01
2013-4-12,58.3,46.9,40.8,45.2,37.8,34.4,85,72,48,29.27,28.92,14,3,14,0.12
2013-4-13,59.9,49.7,40.5,48.6,40.0,30.9,87,72,37,29.37,29.20,20,7,20,0.13
2013-4-14,58.8,55.5,53.4,50.0,46.3,40.3,81,71,55,29.30,29.16,27,12,27,0.09
2013-4-15,62.6,55.5,50.4,45.5,41.7,37.9,75,61,42,29.50,29.29,25,10,25,0.11
2013-4-16,59.2,52.4,45.1,44.2,41.3,38.2,83,67,49,29.56,29.24,27,10,27,0.06
2013-4-17,62.1,52.2,44.4,49.1,42.2,36.4,85,69,54,29.55,29.00,36,12,36,0.11
2013-4-18,54.3,48.0,44.4,42.3,39.5,36.5,86,73,55,29.54,28.98,36,11,36,0.15
2013-4-19,59.0,48.3,39.6,41.4,36.7,32.6,83,66,42,30.10,29.54,11,4,11,0.07
2013-4-20,63.5,49.3,36.1,36.9,32.3,25.9,83,55,26,30.11,29.88,12,3,12,0.01
2013-4-21,55.2,46.6,42.1,42.8,36.6,29.4,83,68,52,29.88,29.55,18,6,18,0.12
2013-4-22,53.4,47.7,42.3,47.5,41.9,38.1,88,81,60,29.55,29.39,24,6,24,0.00
2013-4-23,58.5,51.5,44.8,44.6,42.6,38.9,87,72,58,29.78,29.47,16,5,16,0.02
2013-4-24,55.4,50.9,47.1,47.7,43.7,40.1,88,76,64,29.86,29.66,21,6,21,0.02
2013-4-25,55.2,47.5,42.4,47.0,41.7,37.1,91,81,56,29.85,29.68,13,2,13,0.17
2013-4-26,53.4,44.8,36.0,40.3,35.7,30.3,85,71,50,29.70,29.49,16,4,16,0.11
2013-4-27,60.6,45.4,34.2,39.6,31.0,17.9,86,61,21,29.70,29.55,11,3,11,0.02
2013-4-28,52.9,44.9,39.9,45.0,38.7,32.3,91,79,68,29.68,29.35,23,7,23,0.04
2013-4-29,55.8,47.3,42.3,40.9,37.0,34.2,77,68,48,29.76,29.38,23,8,23,0.02
2013-4-30,64.6,50.6,40.1,42.6,35.6,25.2,82,59,24,29.93,29.76,11,3,11,0.02
2013-5-1,59.0,48.6,36.5,42.1,36.2,28.3,79,63,41,29.91,29.83,12,4,12,0.02
2013-5-2,64.8,51.0,33.4,39.4,28.5,6.8,82,48,10,29.89,29.74,9,2,9,0.01
2013-5-3,61.2,52.4,47.8,46.8,43.0,36.2,83,71,59,29.75,29.45,22,7,22,0.07
2013-5-4,59.4,51.0,46.9,48.4,44.7,39.5,99,80,51,29.62,29.39,25,6,25,0.04
2013-5-5,64.6,53.1,47.7,50.4,46.1,41.2,94,78,55,29.75,29.62,17,6,17,0.02
2013-5-6,72.3,56.7,45.9,45.6,43.0,40.2,85,63,32,29.74,29.65,10,3,10,0.02
2013-5-7,79.2,62.8,44.2,48.7,42.0,37.2,80,50,26,29.68,29.42,14,4,14,0.04
2013-5-8,66.9,57.2,49.3,55.1,46.1,39.7,92,67,46,29.42,29.14,21,8,21,0.02
2013-5-9,53.6,48.5,44.4,48.0,42.1,36.5,99,79,57,29.25,28.92,30,10,30,0.33
2013-5-10,56.7,49.7,46.4,49.4,46.6,41.8,99,89,75,29.36,28.97,23,6,23,0.05
2013-5-11,56.3,47.4,43.2,49.2,42.6,37.3,99,84,56,29.41,29.25,18,7,18,0.40
2013-5-12,53.1,48.7,45.0,50.6,45.4,41.0,99,89,70,29.50,29.33,17,7,17,0.37
2013-5-13,54.7,48.1,43.2,43.6,39.0,35.1,84,71,54,29.36,29.25,24,8,24,0.18
2013-5-14,58.3,48.7,43.9,43.7,37.9,33.2,82,67,43,29.25,28.92,14,5,17,0.09
2013-5-15,58.8,47.0,42.8,44.5,40.6,37.3,91,79,51,29.09,28.80,14,5,14,0.27
2013-5-16,61.3,49.6,39.4,46.6,40.8,36.1,93,73,49,29.22,29.08,9,2,9,0.17
2013-5-17,63.0,52.3,43.0,46.9,42.2,37.5,86,70,42,29.45,29.22,12,3,12,0.09
2013-5-18,52.7,48.8,46.9,51.0,47.4,44.8,99,95,86,29.44,29.28,10,3,10,0.30
2013-5-19,64.4,54.1,48.6,52.3,49.2,47.1,99,85,59,29.58,29.40,10,2,10,0.02
2013-5-20,68.2,58.0,49.1,56.7,52.4,47.5,94,82,64,29.59,29.52,8,2,8,0.00
2013-5-21,66.6,56.5,49.5,52.5,49.3,45.3,95,78,55,29.69,29.58,14,4,14,0.01
2013-5-22,58.8,52.6,45.9,46.2,41.8,35.6,88,68,50,29.71,29.64,23,7,23,0.00
2013-5-23,58.1,46.8,41.4,39.4,34.8,31.0,73,63,42,29.64,29.47,18,6,18,0.02
2013-5-24,57.6,49.3,43.9,42.9,36.0,31.8,78,61,45,29.79,29.43,20,6,20,0.02
2013-5-25,63.5,56.0,37.8,43.4,37.8,28.7,90,53,29,29.82,29.77,11,4,11,0.06
2013-5-26,64.6,51.3,38.8,48.8,42.9,36.4,92,74,52,29.78,29.48,9,2,9,0.01
2013-5-27,55.0,49.2,44.2,48.0,43.1,38.3,91,80,59,29.48,29.12,22,8,22,0.38
2013-5-28,55.6,51.1,46.0,50.9,45.8,40.8,91,82,69,29.25,29.15,13,3,13,0.22
2013-5-29,64.9,55.1,46.6,51.8,47.1,37.8,87,75,59,29.47,29.24,11,4,11,0.01
2013-5-30,70.3,58.5,50.9,53.2,48.8,45.8,90,72,49,29.69,29.43,12,3,12,0.05
2013-5-31,67.3,56.6,45.7,52.0,47.5,41.0,92,73,47,29.78,29.68,12,4,12,0.01
2013-6-1,62.8,54.0,45.3,47.6,42.5,37.5,79,66,44,29.95,29.78,17,5,17,0.01
2013-6-2,66.9,55.4,46.0,47.3,42.6,36.8,84,63,44,30.09,29.94,12,4,12,0.02
2013-6-3,73.9,60.2,43.7,52.3,46.5,41.0,91,64,39,30.13,30.06,10,2,10,0.04
2013-6-4,82.6,67.6,49.6,49.1,43.5,35.3,77,46,19,30.08,29.90,11,3,11,0.02
2013-6-5,78.1,62.3,48.4,52.9,48.3,43.8,87,62,41,29.90,29.73,11,3,11,0.11
2013-6-6,79.0,63.9,48.2,54.5,50.0,44.7,91,63,41,29.87,29.78,10,3,10,0.01
2013-6-7,79.9,65.6,49.6,54.0,49.2,45.1,88,58,39,29.90,29.83,11,2,11,0.06
2013-6-8,79.7,64.6,49.3,50.6,46.5,42.5,82,55,30,29.89,29.72,8,2,8,0.11
2013-6-9,77.4,62.4,47.5,51.6,48.2,43.5,88,62,34,29.73,29.57,10,2,10,0.11
2013-6-10,75.6,60.0,49.5,50.4,46.8,43.7,84,63,39,29.61,29.50,9,3,9,0.01
2013-6-11,69.6,58.8,51.1,56.1,49.6,42.9,84,72,60,29.52,29.34,19,6,19,0.08
2013-6-12,63.0,58.0,56.3,57.7,55.4,53.4,99,91,76,29.36,29.20,16,5,16,0.28
2013-6-13,61.9,56.0,53.1,56.8,52.5,48.6,99,89,68,29.50,29.16,19,5,19,0.19
2013-6-14,62.4,55.1,49.8,56.7,51.6,46.7,99,88,67,29.51,29.18,20,6,20,0.50
2013-6-15,63.9,58.1,50.0,52.1,47.7,42.9,96,69,49,29.28,29.14,20,8,20,0.15
2013-6-16,72.9,59.8,52.7,52.9,49.2,42.5,97,71,36,29.58,29.27,11,3,11,0.04
2013-6-17,77.4,63.8,55.0,52.2,49.9,46.3,82,62,40,29.65,29.57,12,3,12,0.01
2013-6-18,79.2,65.9,52.9,55.6,49.5,42.6,76,57,37,29.63,29.53,14,3,14,0.08
2013-6-19,69.4,62.2,52.3,57.2,51.0,43.0,92,69,41,29.66,29.56,12,4,12,0.02
2013-6-20,73.2,61.8,47.8,56.7,51.3,46.0,94,70,44,29.64,29.39,13,2,13,0.02
2013-6-21,72.0,62.3,56.5,58.7,54.5,49.4,97,77,47,29.42,29.31,11,3,11,0.05
2013-6-22,63.3,55.8,50.5,56.5,51.9,49.5,99,87,62,29.31,29.04,27,8,27,0.72
2013-6-23,57.9,54.8,52.2,53.6,51.2,47.1,98,88,78,29.58,29.07,23,8,23,0.22
2013-6-24,65.5,56.5,51.8,48.9,45.7,42.2,81,68,47,29.90,29.58,17,6,17,0.04
2013-6-25,69.4,59.9,45.1,55.5,47.9,43.0,95,67,44,30.05,29.90,10,3,10,0.00
2013-6-26,68.2,60.1,51.8,54.7,50.0,45.5,92,71,50,30.06,30.01,15,4,15,0.02
2013-6-27,61.7,55.4,52.7,56.0,51.5,48.0,99,87,63,30.02,29.77,11,3,11,0.27
2013-6-28,62.4,56.6,53.1,58.8,55.3,47.4,99,96,76,29.77,29.61,17,5,17,0.50
2013-6-29,65.1,57.0,52.0,57.4,49.9,45.5,99,78,57,29.83,29.70,11,4,11,0.00
2013-6-30,65.1,59.1,55.8,57.8,54.7,50.7,99,86,64,29.81,29.55,21,5,21,0.02
2013-7-1,66.2,58.3,53.4,50.8,47.4,43.9,84,68,49,29.59,29.54,17,5,17,0.00
2013-7-2,59.5,56.1,53.2,56.2,50.8,45.3,99,83,67,29.55,29.10,18,8,18,0.21
2013-7-3,67.3,59.8,55.9,56.8,54.8,51.8,99,85,61,29.53,29.10,12,4,12,0.11
2013-7-4,70.0,62.1,57.9,58.6,54.4,50.4,93,77,53,29.84,29.47,21,6,21,0.05
2013-7-5,73.8,62.8,51.4,55.1,51.0,48.6,92,67,44,30.03,29.84,11,3,11,0.00
2013-7-6,73.2,63.0,52.0,57.7,52.3,49.0,92,70,49,30.08,29.97,11,3,11,0.02
2013-7-7,81.5,65.7,52.9,61.4,55.2,50.1,93,71,47,30.16,29.75,8,2,8,0.06
2013-7-8,89.2,76.6,59.9,62.8,57.7,48.6,91,54,28,29.82,29.72,9,3,9,0.07
2013-7-9,84.9,72.5,57.7,64.7,58.6,54.3,91,64,47,29.92,29.54,9,2,9,0.07
2013-7-10,83.5,73.0,58.5,61.6,58.4,52.3,82,61,45,29.95,29.91,8,3,8,0.07
2013-7-11,80.1,67.1,52.2,60.4,55.4,49.5,92,68,47,29.95,29.86,11,2,11,0.05
2013-7-12,80.6,69.5,57.7,62.3,57.3,50.5,92,68,42,29.90,29.84,8,2,8,0.05
2013-7-13,81.5,68.3,58.5,63.9,59.4,55.5,93,75,50,29.90,29.85,10,3,10,0.04
2013-7-14,74.5,65.4,58.3,57.9,54.5,47.6,93,70,45,29.90,29.83,10,4,10,0.05
2013-7-15,73.2,62.6,54.3,61.3,56.3,52.4,97,82,51,29.86,29.83,11,2,11,0.00
2013-7-16,79.3,67.5,52.9,63.7,56.8,52.0,98,71,46,29.86,29.82,9,2,9,0.12
2013-7-17,86.4,71.5,55.9,65.4,56.1,49.7,97,63,31,29.93,29.85,11,2,11,0.14
2013-7-18,87.6,75.1,58.5,62.6,57.2,53.1,84,56,35,29.96,29.91,9,2,9,0.08
2013-7-19,90.9,77.5,62.8,65.0,60.2,56.7,85,58,38,29.94,29.86,8,2,8,0.02
2013-7-20,82.6,71.3,59.9,60.8,57.2,54.7,86,63,42,29.91,29.82,14,4,14,0.00
2013-7-21,75.9,65.7,60.6,58.7,55.9,53.1,87,71,48,29.86,29.70,11,3,11,0.00
2013-7-22,86.7,72.1,58.1,64.7,60.3,54.2,89,68,43,29.72,29.53,11,4,11,0.04
2013-7-23,79.5,69.8,64.4,68.1,63.2,59.3,95,80,59,29.53,29.45,11,3,11,0.25
2013-7-24,80.6,69.0,59.0,64.6,59.3,54.1,99,74,41,29.51,29.46,9,2,9,0.17
2013-7-25,77.9,70.6,60.3,66.7,59.8,56.5,98,70,51,29.47,29.39,13,4,13,0.30
2013-7-26,78.3,67.5,56.8,59.4,56.3,52.8,93,69,42,29.50,29.46,10,2,10,0.06
2013-7-27,81.5,70.7,57.6,63.7,55.8,52.3,93,62,39,29.46,29.19,8,2,9,0.34
2013-7-28,77.5,64.2,58.3,62.1,59.2,56.6,99,85,50,29.26,29.12,14,4,14,1.10
2013-7-29,75.4,65.5,60.4,62.1,58.8,55.1,99,80,54,29.42,29.22,19,6,19,0.24
2013-7-30,75.4,65.2,59.2,59.1,55.8,50.1,95,74,46,29.45,29.40,12,4,12,0.21
2013-7-31,70.9,62.6,55.4,64.9,57.7,52.4,99,85,56,29.52,29.39,13,4,13,0.35
2013-8-1,85.8,70.3,63.1,67.3,62.4,59.1,96,78,53,29.40,29.21,20,6,20,0.06
2013-8-2,77.5,69.1,61.7,62.4,59.0,54.8,92,71,47,29.30,29.20,17,5,17,0.04
2013-8-3,63.3,61.3,60.6,57.1,55.5,52.1,86,81,73,29.35,29.27,11,4,11,0.00
2013-8-4,72.3,63.4,57.6,61.8,57.8,53.9,99,83,54,29.58,29.47,12,7,12,0.86
2013-8-5,64.8,61.2,57.4,63.9,58.7,51.9,99,91,79,29.50,29.27,11,4,11,1.56
2013-8-6,73.2,60.3,48.7,55.7,48.8,44.2,97,69,38,29.62,29.50,11,2,11,0.00
2013-8-7,77.7,64.2,51.6,53.8,49.6,45.9,85,62,35,29.67,29.55,10,2,10,0.00
2013-8-8,77.0,63.7,49.5,58.1,52.6,46.9,92,69,41,29.69,29.58,11,2,11,0.05
2013-8-9,67.6,61.8,57.7,59.5,53.8,48.9,99,76,54,29.77,29.52,15,6,15,0.04
2013-8-10,68.9,61.5,54.5,56.1,50.9,44.9,93,69,45,29.77,29.63,14,3,14,0.11
2013-8-11,69.1,60.8,55.9,58.7,52.8,49.4,97,76,56,29.64,29.56,14,5,14,0.07
2013-8-12,67.8,60.0,55.9,54.4,50.7,47.1,90,72,52,29.68,29.53,17,7,17,0.01
2013-8-13,70.0,60.5,50.2,54.5,51.4,45.9,89,73,55,29.80,29.68,13,3,13,0.00
2013-8-14,72.9,63.9,57.0,62.7,57.1,52.2,97,80,50,29.79,29.61,14,4,14,0.08
2013-8-15,72.0,64.3,61.7,64.2,62.2,61.1,99,93,73,29.62,29.42,17,6,17,0.48
2013-8-16,72.0,64.2,58.1,62.1,56.9,53.0,99,78,55,29.56,29.40,14,4,14,0.20
2013-8-17,63.1,60.8,58.8,61.8,57.4,53.2,98,89,78,29.51,29.10,15,8,15,1.00
2013-8-18,68.9,61.5,56.1,55.3,51.8,48.9,93,72,51,29.47,29.18,14,5,14,0.18
2013-8-19,68.0,61.0,52.3,55.8,53.3,48.5,90,77,60,29.84,29.47,9,3,9,0.00
2013-8-20,73.6,65.8,56.5,58.6,55.7,53.3,94,71,50,29.93,29.84,12,4,12,0.00
2013-8-21,70.3,62.6,57.7,62.9,58.2,53.7,99,86,73,29.84,29.71,17,4,17,0.05
2013-8-22,84.0,69.0,61.0,62.9,60.2,57.5,96,77,44,29.72,29.59,8,2,8,0.13
2013-8-23,75.4,67.0,60.6,62.4,59.7,56.2,93,78,61,29.59,29.48,14,4,14,0.22
2013-8-24,69.1,61.1,53.1,60.7,55.5,45.9,99,83,50,29.56,29.49,11,2,11,0.04
2013-8-25,86.2,67.4,51.1,61.3,55.9,49.5,97,70,40,29.73,29.55,7,2,7,0.00
2013-8-26,81.7,67.6,52.9,63.2,54.8,51.5,97,67,40,29.78,29.70,9,2,9,0.04
2013-8-27,73.9,64.1,52.9,59.8,55.4,49.4,91,74,53,29.78,29.69,10,2,10,0.00
2013-8-28,69.3,60.8,55.6,58.2,52.7,47.2,97,76,51,29.84,29.77,11,2,11,0.05
2013-8-29,69.1,61.9,56.5,61.3,57.5,49.4,96,86,72,29.77,29.68,13,4,13,0.04
2013-8-30,67.6,62.4,55.0,62.0,58.2,47.1,97,86,71,29.75,29.58,16,4,16,0.01
2013-8-31,65.5,57.7,49.8,49.9,45.7,41.3,80,65,46,29.99,29.74,17,5,17,0.00
2013-9-1,63.3,58.9,56.1,52.2,49.4,46.9,77,71,62,29.99,29.92,17,6,17,0.01
2013-9-2,70.5,62.4,59.2,60.4,57.8,53.4,95,85,70,29.93,29.85,11,5,11,0.02
2013-9-3,73.0,63.7,59.0,61.1,58.9,55.5,99,86,58,29.94,29.85,6,2,6,0.00
2013-9-4,82.8,64.5,55.9,58.6,54.8,49.1,96,73,44,29.85,29.57,8,2,8,0.02
2013-9-5,71.2,60.0,54.3,62.8,51.5,48.1,94,74,55,29.56,29.45,9,2,9,0.00
2013-9-6,58.1,52.8,49.3,52.9,49.7,48.0,98,89,75,29.45,29.34,11,3,11,0.61
2013-9-7,59.2,51.6,48.9,52.6,48.2,43.4,99,88,69,29.56,29.32,19,6,19,0.38
2013-9-8,62.6,52.3,46.4,53.2,46.7,42.4,99,82,55,29.60,29.55,15,5,15,0.58
2013-9-9,66.7,54.9,46.8,55.1,49.8,45.0,99,84,55,29.73,29.56,12,2,12,0.60
2013-9-10,69.8,56.5,46.4,57.9,47.6,43.4,99,76,41,29.84,29.73,11,2,11,0.01
2013-9-11,59.2,54.0,48.0,57.4,52.4,46.8,99,94,80,29.84,29.69,8,1,8,0.24
2013-9-12,71.6,58.5,50.4,60.8,56.3,50.1,99,93,60,29.70,29.58,16,3,16,0.25
2013-9-13,59.9,55.4,51.8,57.5,49.2,46.0,99,81,63,29.68,29.59,8,2,10,0.01
2013-9-14,66.4,55.4,46.2,51.0,45.6,40.9,92,72,43,29.67,29.58,9,2,9,0.11
2013-9-15,59.9,52.5,46.4,59.6,47.3,38.3,99,83,55,29.63,28.99,23,8,23,0.53
2013-9-16,54.3,51.1,48.2,47.5,42.4,39.2,92,72,62,29.10,29.00,26,10,26,0.17
2013-9-17,53.6,50.7,44.6,47.7,44.7,42.3,97,80,68,29.10,28.96,18,5,18,0.11
2013-9-18,60.3,50.6,44.4,52.4,46.5,43.7,99,87,62,29.40,29.02,18,4,18,0.14
2013-9-19,61.3,54.1,49.6,57.5,48.9,44.1,99,83,70,29.42,29.17,17,6,17,0.11
2013-9-20,62.6,55.9,51.3,52.3,46.7,42.4,92,72,51,29.75,29.40,13,3,13,0.00
2013-9-21,64.4,57.7,52.3,58.3,52.4,44.3,91,83,74,29.83,29.70,12,4,12,0.00
2013-9-22,71.6,60.9,51.6,62.1,56.7,49.6,99,87,61,29.95,29.83,9,2,9,0.00
2013-9-23,64.8,57.9,49.3,59.7,54.7,48.2,97,89,77,29.92,29.72,5,1,5,0.00
2013-9-24,70.0,61.4,57.0,58.2,55.6,53.5,91,82,61,29.72,29.52,8,1,8,0.00
2013-9-25,67.8,59.7,54.5,60.2,54.6,46.4,93,83,71,29.56,29.45,12,1,12,0.00
2013-9-26,69.1,57.9,52.9,48.9,46.4,43.0,77,66,48,29.67,29.56,13,3,13,0.00
2013-9-27,74.1,61.0,56.3,52.3,49.1,46.8,78,66,41,29.65,29.56,12,4,12,0.00
2013-9-28,71.4,60.8,48.4,50.2,46.9,42.2,83,62,42,29.52,29.40,17,4,17,0.00
2013-9-29,70.3,59.1,53.4,50.3,46.7,44.6,79,65,42,29.48,29.40,17,5,21,0.04
2013-9-30,65.7,57.9,53.4,50.9,47.9,43.0,81,70,58,29.42,29.32,33,6,33,0.06
2013-10-1,67.5,56.9,52.0,51.2,47.6,43.6,77,71,54,29.43,29.35,21,7,21,0.02
2013-10-2,65.1,58.8,54.1,57.7,52.8,48.0,90,81,68,29.40,29.34,20,9,20,0.14
2013-10-3,68.0,63.1,61.5,60.6,58.7,56.5,93,86,72,29.38,29.15,18,8,18,0.20
2013-10-4,66.6,61.1,57.9,61.7,58.1,55.3,94,90,83,29.49,29.15,15,4,15,0.12
2013-10-5,61.7,57.2,52.2,55.6,52.4,48.2,93,84,70,29.80,29.50,10,1,10,0.00
2013-10-6,65.7,58.3,52.7,56.5,52.9,49.7,93,83,67,29.82,29.78,14,5,14,0.00
2013-10-7,63.9,61.0,59.0,59.3,56.6,53.2,96,86,72,29.81,29.74,15,5,15,0.05
2013-10-8,63.0,58.8,54.0,58.5,54.0,47.3,96,85,67,29.84,29.72,14,4,14,0.09
2013-10-9,56.7,52.4,45.9,48.2,42.2,33.9,84,69,50,29.82,29.61,18,7,18,0.01
2013-10-10,54.1,47.2,41.7,37.4,34.3,30.2,71,61,50,29.91,29.68,17,4,17,0.00
2013-10-11,60.4,51.7,45.0,46.5,42.0,36.1,77,70,59,29.97,29.88,14,5,14,0.00
2013-10-12,61.7,54.1,49.5,48.3,45.4,40.4,77,72,61,29.93,29.73,12,5,12,0.00
2013-10-13,55.4,52.4,49.1,46.6,43.5,41.2,80,72,63,29.74,29.50,10,3,10,0.09
2013-10-14,56.8,51.7,48.0,48.0,44.6,41.7,87,77,68,29.50,29.40,11,3,11,0.07
2013-10-15,59.9,51.1,41.9,53.4,45.6,38.6,91,82,68,29.57,29.41,7,1,7,0.01
2013-10-16,53.1,50.0,41.9,50.2,45.4,38.8,91,84,74,29.57,29.00,26,7,26,0.21
2013-10-17,60.6,53.2,46.6,52.7,48.8,44.4,93,85,73,29.56,29.25,13,2,13,0.00
2013-10-18,57.0,54.3,48.7,52.0,50.0,46.5,94,85,79,29.57,29.26,21,6,21,0.17
2013-10-19,64.8,57.0,53.6,56.9,52.7,48.9,94,86,71,29.26,29.08,24,7,24,0.34
2013-10-20,58.5,55.6,53.2,53.7,51.1,49.5,93,85,78,29.16,29.05,20,7,20,0.18
2013-10-21,63.1,55.7,51.8,57.4,52.6,49.6,95,89,80,29.18,28.99,23,6,23,0.14
2013-10-22,62.1,59.6,58.6,57.3,55.5,53.8,93,86,82,28.95,28.76,17,8,17,0.33
2013-10-23,59.0,54.3,50.2,54.0,47.4,39.9,95,78,65,29.31,28.64,17,8,17,0.28
2013-10-24,60.1,52.8,43.2,48.3,43.9,38.3,85,72,53,29.52,29.33,11,4,11,0.00
2013-10-25,63.3,56.9,53.2,55.3,51.8,46.9,93,83,68,29.34,28.99,16,9,16,0.32
2013-10-26,57.7,55.0,50.2,53.1,50.3,45.9,91,85,65,29.11,28.88,14,6,14,0.13
2013-10-27,59.4,54.6,49.5,49.9,47.4,45.9,92,77,66,28.88,28.68,27,9,27,0.15
2013-10-28,55.6,51.1,48.7,47.9,44.8,25.0,93,79,67,29.01,28.53,57,6,57,0.13
2013-10-29,52.7,49.2,45.9,45.1,41.7,39.0,88,75,64,29.56,29.00,16,6,16,0.12
2013-10-30,53.8,48.7,41.7,49.8,42.2,37.1,93,78,65,29.61,29.39,22,6,22,0.05
2013-10-31,56.1,50.5,46.8,48.8,46.2,42.2,93,85,71,29.53,29.36,22,5,22,0.09
2013-11-9,49.6,41.9,32.5,40.2,36.2,28.4,91,80,66,29.23,29.14,7,2,7,0.13
2013-11-10,46.2,37.7,29.7,41.3,32.6,26.8,93,82,68,29.75,29.25,13,2,13,0.01
2013-11-11,54.0,48.6,44.4,52.6,45.7,35.2,96,90,68,29.68,29.54,16,8,16,0.17
2013-11-13,50.0,47.6,45.1,47.2,44.0,41.3,93,87,82,29.77,29.59,12,8,12,0.13
2013-11-14,49.3,43.8,32.2,44.6,35.0,27.3,84,72,53,30.11,29.59,16,5,16,0.08
2013-11-15,50.4,44.6,31.6,46.2,40.9,27.6,92,87,75,30.14,30.07,4,0,4,0.00
2013-11-16,52.5,50.1,48.6,48.7,45.2,43.1,92,83,76,30.07,29.96,9,2,9,0.01
2013-11-17,51.4,48.6,43.9,48.7,46.3,42.1,94,92,85,29.97,29.56,15,4,15,0.06
2013-11-18,48.6,44.5,35.8,46.3,41.0,30.2,94,88,76,29.56,29.37,14,3,14,0.14
2013-11-19,43.5,35.9,30.0,39.1,29.1,22.9,90,77,59,29.65,29.40,16,2,16,0.07
2013-11-20,46.2,43.7,41.5,42.0,35.4,30.6,89,73,60,29.45,29.02,22,7,22,0.15
2013-11-21,45.9,41.4,39.0,39.0,34.8,32.3,82,77,69,29.67,29.18,17,4,17,0.00
2013-11-22,46.9,38.0,31.3,36.0,31.7,26.4,83,78,62,29.86,29.66,6,1,6,0.00
2013-11-23,43.7,36.0,27.9,37.8,30.2,22.4,87,80,69,30.01,29.86,5,0,5,0.01
2013-11-24,46.4,39.7,32.4,38.2,33.9,27.8,85,80,71,30.27,29.39,4,0,4,0.00
2013-11-25,45.7,36.8,33.1,35.1,29.9,26.0,85,76,65,30.35,30.26,4,1,4,0.00
2013-11-26,48.0,44.0,37.9,45.8,39.2,33.8,92,83,16,30.34,30.17,8,1,8,0.00
2013-11-27,51.4,47.4,37.4,46.9,44.2,34.0,92,89,82,30.18,30.12,8,1,8,0.00
2013-11-28,50.5,45.0,36.5,48.0,41.6,33.3,93,88,80,30.20,30.07,5,0,5,0.00
2013-11-29,48.7,46.1,41.5,45.6,39.3,33.5,92,77,65,30.08,29.79,19,4,19,0.02
2013-11-30,46.8,40.3,31.5,43.2,33.8,26.7,89,78,59,30.05,29.85,6,0,6,0.02
2013-12-1,51.1,47.1,42.1,47.5,43.0,39.9,92,86,75,30.19,30.02,7,0,7,0.01
2013-12-2,47.1,45.8,44.4,41.9,39.7,37.3,84,79,75,30.19,27.87,9,3,9,0.00
2013-12-3,49.3,46.5,44.1,45.5,41.5,38.0,89,83,79,30.03,29.80,11,3,11,0.01
2013-12-4,48.7,43.5,35.4,46.2,36.6,29.9,92,77,68,30.00,29.79,16,1,16,0.02
2013-12-5,48.9,45.8,40.6,44.6,36.6,27.4,88,70,53,29.92,29.40,23,3,23,0.28
2013-12-29,45.9,43.1,41.2,39.9,36.3,33.3,84,77,69,29.49,29.21,0,0,0,0.02
2013-12-30,51.4,45.8,40.6,45.8,41.3,35.9,87,84,80,29.29,28.82,0,0,0,0.28
2013-12-31,48.4,43.9,41.4,40.5,38.0,35.4,91,80,72,29.24,28.92,0,0,0,0.17
2014-1-1,51.8,45.0,40.6,47.0,40.3,35.9,88,83,79,28.97,28.37,1,0,1,0.28
2014-1-2,47.8,45.1,42.8,42.9,39.9,37.2,90,82,72,28.84,28.49,1,0,1,0.11